Regional Weather Roundup
Issued by NWS Green Bay, WI

Home | Current Version | Previous Version | Text Only | Print | Product List | Glossary On
Versions: 1 2 3 4 5 6 7 8 9 10 11 12 13 14 15 16 17 18 19 20 21 22 23 24 25 26 27 28 29 30 31 32 33 34 35 36 37 38 39 40 41 42 43 44 45 46 47 48 49 50
000
ASUS43 KGRB 082111
RWRGRB

NORTH-CENTRAL AND NORTHEAST WISCONSIN REGIONAL WEATHER ROUNDUP
NATIONAL WEATHER SERVICE GREEN BAY WI
300 PM CST THU DEC 08 2016

WIZ005-009-010>012-018-019-082200-
NORTH CENTRAL WISCONSIN

CITY           SKY/WX    TMP DP  RH WIND       PRES   REMARKS
IRONWOOD       FLURRIES  27  18  69 NW16G23   30.22R
MANITOWISH WTR PTCLDY    24  18  79 N14G20    30.17R
ARBOR VITAE    MOCLDY    26  19  77 N9        30.17R
EAGLE RIVER    LGT SNOW  24  17  75 NW10G21   30.15R
LAND O LAKES   MOCLDY    25  20  81 NW7       30.16R
RHINELANDER    LGT SNOW  26  21  81 NW10      30.16R
PHILLIPS       FLURRIES  24  18  80 W9        30.21R
ANTIGO         FLURRIES  25  18  76 W13       30.16R
TOMAHAWK       CLOUDY    25  17  69 W9G20     30.19R
MERRILL        CLOUDY    26  16  65 NW8G16    30.21R
$$

WIZ013-073-082200-
NORTHEAST WISCONSIN

CITY           SKY/WX    TMP DP  RH WIND       PRES   REMARKS
IRON MOUNTAIN  MOCLDY    26  17  68 NW15      30.11R
MARINETTE      PTCLDY    32  14  47 NW12G18   30.14R
OCONTO         CLOUDY    31  20  64 W9        30.16R
$$

WIZ017-030-035>037-045-082200-
CENTRAL WISCONSIN

CITY           SKY/WX    TMP DP  RH WIND       PRES   REMARKS
MEDFORD        CLOUDY    23  15  71 W15       30.22R WCI  10
WAUSAU         CLOUDY    24  16  71 W15       30.21R
MOSINEE        NOT AVBL
MARSHFIELD     CLOUDY    23  14  68 NW17      30.25R WCI   9
WISC RAPIDS    CLOUDY    25  16  68 NW16G22   30.28R
STEVENS POINT  CLOUDY    24  15  69 W10G21    30.24R
WAUPACA        CLOUDY    31  17  57 W12G20    30.24R
SHAWANO        CLOUDY    31  18  59 NW12G21   30.19R
CLINTONVILLE   MOCLDY    30  16  55 NW18G24   30.20R
WAUTOMA        FLURRIES  26  18  71 NW17      30.26R
$$

WIZ038-039-048-051-082200-
FOX VALLEY

CITY           SKY/WX    TMP DP  RH WIND       PRES   REMARKS
NWS GREEN BAY  CLOUDY    32  20  61 NW14      30.18R
APPLETON       MOCLDY    28  16  59 W18       30.16S
OSHKOSH        MOCLDY    26  17  68 W12G20    30.21R
FOND DU LAC    MIX PCPN  26  16  65 W15       30.23R
$$

WIZ022-050-052-082200-
EAST CENTRAL WISCONSIN

CITY           SKY/WX    TMP DP  RH WIND       PRES   REMARKS
EPHRAIM        MOCLDY    32  18  55 N13G18    30.11R
WASHINGTON ISL LGT SNOW  29  24  78 N15G22    30.11R
STURGEON BAY   FLURRIES  31  21  66 NW15      30.14R
MANITOWOC      CLEAR     30  19  63 W21       30.18R
SHEBOYGAN      CLOUDY    27  17  66 W16G24    30.21R
$$

LMZ563-521-522-541>543-082200-
LAKESHORE

STATION/POSITION TIME  TEMP    WIND        PRES    VSBY  WAVE
                       AIR SEA DIR/SP/G                  HT/PER
                 (UTC) (F)     (DEG/KT/KT) (MB)    (MI)  (FT/S)
SHEBOYGAN LKSHOR 2100   27     270/ 20/ 25 1023.2R
KEWAUNEE LKSHORE 2048   31     290/ 12/ 18 1020.3R
NORTHPORT PIER   2040   33     320/ 20/ 26 1019.3R
CHAMBERS ISLAND  2040   34     300/ 11/ 18 1019.6R
MENOMINEE LKSHOR 2048   33     310/ 17     1019.5R
$$




USA.gov is the U.S. government's official web portal to all federal, state and local government web resources and services.